Location: *
(38.9555°S, 57.3572°E)
Time: 01:49:21
(UTC+00:00)

Cosmos 2297 Rocket - Pass Details

Date: 15 July 2020
Orbit: 839 x 843 km, 71.0° (Epoch: 06 August)

Event Time Altitude Azimuth Distance (km) Brightness Sun altitude
Rises 14:00:54 0° 347° (NNW) 3,391 5.8 -10.3°
Reaches altitude 10° 14:03:20 10° 349° (N) 2,463 5.0 -10.8°
Maximum altitude 14:08:57 68° 71° (ENE) 918 2.2 -11.8°
Drops below altitude 10° 14:14:37 10° 152° (SSE) 2,492 4.2 -12.9°
Enters shadow 14:15:28 - 153° (SSE) 2,813 4.5 -13.0°
